SCP
0 0 0 0 0 0 0 0 0 0 0 0 0 0 0 0 0 0 0 0 0 0 0 0 0 0 0 0 0 0 0 0 0 0 0 0 0 0 0 0 0 0 0 0 0 0 0 0 0 0 0 0 0 0
0 0 0 0 0 0 0 0 0 0 0 0 0 0 0 0 0 0 0 0 0 0 0 0 0 0 0 0 0 0 0 0 0 0 0 0 0 0 0 0 0 0 0 0 0 0 0 0 0 0 0 0 0 0
0 0 0 0 0 0 0 0 0 0 0 0 0 0 0 0 0 0 0 0 0 0 0 0 0 0 0 0 0 0 0 0 0 0 0 0 0 0 0 0 0 0 0 0 0 0 0 0 0 0 0 0 0 0
0 0 0 0 0 0 0 0 0 0 0 0 0 0 0 0 0 0 0 0 0 0 0 0 0 0 0 0 0 0 0 0 0 0 0 0 0 0 0 0 0 0 0 0 0 0 0 0 0 0 0 0 0 0
0 0 0 0 0 0 0 0 0 0 0 0 0 0 0 0 0 0 0 0 0 0 0 0 0 0 0 0 0 0 0 0 0 0 0 0 0 0 0 0 0 0 0 0 0 0 0 0 0 0 0 0 0 0
0 0 0 0 0 0 0 0 0 0 0 0 0 0 0 0 0 0 0 0 0 0 0 0 0 0 0 0 0 0 0 0 0 0 0 0 0 0 0 0 0 0 0 0 0 0 0 0 0 0 0 0 0 0
0 0 0 0 0 0 0 0 0 0 0 0 0 0 0 0 0 0 0 0 0 0 0 0 0 0 0 0 0 0 0 0 0 0 0 0 0 0 0 0 0 0 0 0 0 0 0 0 0 0 -0 -0 0 0
0 0 0 0 0 0 0 0 0 0 0 0 0 0 0 0 0 0 0 0 0 0 0 0 0 0 0 -0 0 0 0 0 0 0 0 0 0 0 0 0 0 0 0 0 0 0 0 0 0 0 0 0 0 0
0 0 0 0 0 0 0 0 0 0 0 0 0 0 0 0 0 0 0 0 0 0 0 0 0 0 0 -0 -0 0 0 0 0 0 0 0 0 0 0 0 0 0 0 0 0 0 0 0 0 0 0 0 0 0
0 0 0 0 0 0 0 0 0 0 0 0 0 0 0 0 0 0 0 0 0 0 0 0 0 0 0 0 0 -0 0 0 0 0 0 0 0 0 0 0 0 0 -0 -0 -0 -0 -0 0 0 0 0 0 0 0
0 0 0 0 0 0 0 0 0 0 0 0 0 0 0 0 0 0 0 0 0 0 0 0 0 0 0 0 0 0 0 0 0 0 0 0 0 0 0 0 0 0 0 -0 -0 -0 0 0 0 0 0 0 0 0
0 0 0 0 0 0 0 0 0 0 0 0 0 0 0 0 0 0 0 0 0 0 0 -0 0 0 0 0 0 0 0 0 0 0 0 0 0 0 -0 0 0 0 -0 -0 0 -0 0 0 0 0 0 0 0 0
0 0 0 -0 -0 -0 -0 -0 0 0 0 0 0 0 0 0 0 0 -0 -0 -0 -0 -0 0 0 0 0 0 0 -0 -0 -0 0 0 0 0 -0 0 0 0 -0 -0 -0 -0 -0 0 0 0 0 0 0 0 0 0
-0 -0 -0 -0 -0 0 0 0 -0 0 0 0 0 0 0 0 0 0 -0 0 -0 -0 0 0 0 0 0 0 0 0 0 0 0 0 0 -0 -0 -0 -0 -0 -0 -0 -0 -0 -0 0 0 0 0 0 0 0 0 0
0 0 -0 -0 -0 0 0 0 0 0 0 0 0 0 0 0 -0 -0 -0 0 0 0 -0 0 0 0 0 0 0 0 0 0 -0 0 0 -0 -0 -0 -0 -0 -0 -0 -0 -0 0 -0 -0 0 0 0 0 0 0 0
0 0 0 -0 0 -0 0 0 0 0 0 0 0 0 0 0 0 -0 -0 0 0 -0 -0 -0 0 -0 0 0 0 0 0 0 0 0 -0 -0 -0 -0 -0 -0 -0 -0 -0 -0 0 -0 -0 0 0 0 0 0 -0 0
0 0 0 0 0 0 0 0 0 0 0 0 0 0 0 0 0 0 0 0 0 -0 -0 -0 -0 -0 0 -0 -0 -0 0 0 0 -0 -0 -0 -0 -0 -0 -0 -0 -0 -0 -0 0 -0 -0 0 0 0 0 -0 -0 -0
0 0 0 0 0 0 0 0 0 0 0 0 0 0 0 0 0 0 0 0 -0 -0 0 0 -0 -0 -0 0 0 -0 -0 0 0 -0 -0 -0 -0 -0 -0 -0 0 0 -0 0 0 -0 -0 -0 0 -0 -0 -0 0 0
0 -0 0 0 0 0 0 0 0 0 0 0 0 0 0 0 0 0 0 0 -0 -0 -0 -0 -0 0 -0 -0 -0 0 0 0 -0 -0 -0 -0 -0 0 -0 0 0 0 0 0 0 -0 -0 0 -0 0 -0 -0 -0 0
0 0 0 0 0 0 0 0 0 0 0 0 0 0 0 0 0 -0 -0 -0 -0 -0 -0 0 0 0 -0 -0 0 -0 -0 -0 0 -0 -0 -0 0 -0 0 -0 -0 0 -0 -0 0 0 -0 -0 0 -0 0 -0 -0 -0
0 0 0 0 0 0 0 0 0 0 0 0 0 0 0 0 -0 -0 -0 -0 -0 -0 0 0 0 -0 0 0 0 -0 -0 -0 0 0 0 0 -0 -0 0 -0 -0 -0 -0 -0 0 -0 -0 0 0 -0 -0 -0 -0 -0
0 0 0 0 0 0 0 0 0 0 0 0 0 -0 0 -0 -0 -0 -0 -0 0 0 0 0 0 0 0 -0 -0 -0 -0 -0 -0 -0 0 0 -0 -0 -0 -0 0 0 0 -0 -0 0 -0 -0 -0 -0 -0 -0 -0 -0
0 0 -0 -0 -0 -0 -0 -0 -0 -0 -0 -0 -0 -0 -0 -0 -0 -0 -0 -0 -0 -0 0 0 0 0 0 -0 0 -0 -0 -0 -0 -0 0 0 0 0 0 0 0 -0 -0 -0 -0 -0 0 -0 -0 -0 -0 -0 -0 -0
0 -0 0 0 0 0 -0 -0 -0 -0 -0 0 0 0 0 0 0 0 0 0 0 0 0 0 0 0 0 0 -0 0 0 -0 -0 -0 0 -0 -0 -0 -0 -0 -0 -0 -0 -0 -0 -0 -0 -0 -0 -0 -0 -0 -0 -0
0 0 0 0 0 0 0 0 0 0 0 0 0 0 0 0 0 0 0 0 0 0 0 0 0 0 0 0 0 -0 0 -0 0 0 -0 -0 -0 -0 -0 -0 -0 -0 -0 -0 -0 -0 -0 -0 -0 -0 -0 -0 -0 -0
0 0 0 0 0 0 0 0 0 0 0 0 0 0 0 0 0 0 0 0 0 0 0 0 0 0 -0 -0 0 -0 -0 -0 -0 -0 0 0 -0 -0 -0 -0 -0 0 0 0 0 -0 -0 -0 -0 -0 -0 -0 0 -0
0 0 0 0 0 0 0 0 0 0 0 0 0 0 0 0 0 0 0 0 0 0 0 -0 0 0 0 0 0 0 0 0 0 0 0 -0 -0 0 -0 -0 -0 -0 -0 0 0 0 0 0 0 -0 -0 0 0 0
0 0 0 0 0 0 0 0 0 0 0 0 0 0 0 0 0 0 0 0 0 0 0 0 0 0 0 0 -0 -0 -0 0 0 -0 0 0 0 0 0 0 0 0 0 0 0 0 0 0 0 0 0 0 0 0
0 0 0 0 0 0 0 0 0 0 0 0 0 0 0 0 0 0 0 0 -0 0 -0 0 -0 0 0 0 -0 -0 0 0 0 0 0 0 0 0 0 0 0 0 0 0 0 0 -0 0 0 0 0 0 0 0
0 0 0 0 0 0 0 0 0 0 0 0 0 0 0 0 0 0 -0 -0 -0 0 0 0 0 -0 -0 0 0 0 0 0 0 0 0 0 0 0 0 0 0 0 0 0 0 0 0 0 0 0 0 0 0 0
0 0 0 0 0 0 0 0 0 0 0 0 0 0 -0 0 0 0 -0 -0 -0 -0 0 0 0 0 0 0 0 0 0 0 -0 -0 0 0 0 0 0 0 0 0 0 0 0 0 0 0 0 0 0 -0 0 0
0 0 -0 0 -0 0 0 0 0 -0 -0 -0 -0 -0 0 -0 -0 0 -0 -0 -0 -0 -0 -0 -0 -0 -0 -0 0 0 0 0 0 0 0 0 0 0 0 0 0 0 0 0 0 0 0 0 0 0 0 0 0 0
0 0 0 -0 -0 -0 -0 -0 -0 -0 -0 -0 -0 -0 0 0 0 0 0 0 0 0 -0 -0 -0 -0 -0 -0 -0 -0 0 0 0 0 0 0 0 0 0 0 0 0 0 0 0 0 0 0 0 0 0 0 0 0
Wind_Speed_500mb
53 44 43 42 41 40 36 35 34 30 26 21 16 13 16 21 21 22 24 19 23 14 31 37 31 20 16 21 13 14 17 8 8 10 10 22 18 25 27 32 20 24 14 12 13 16 26 13 9 18 4 3 3 7
40 49 42 39 40 37 36 36 31 27 26 27 22 17 20 20 21 24 30 28 25 44 23 41 56 58 49 45 29 12 13 13 9 6 4 7 8 6 13 30 19 32 26 20 16 13 6 9 3 7 7 10 10 19
34 39 39 39 38 37 36 35 32 30 28 30 26 20 21 22 20 27 31 23 25 22 35 37 30 24 33 37 55 27 30 28 21 21 9 6 10 5 8 11 8 8 4 9 10 16 14 15 10 5 5 8 11 14
33 34 35 35 38 35 35 34 34 33 31 29 25 22 20 21 19 24 26 19 24 14 10 22 28 40 30 26 37 60 65 39 24 24 6 5 6 13 6 10 7 7 13 3 8 1 4 6 8 13 16 23 27 29
33 32 32 33 33 31 35 34 31 32 30 31 25 24 22 22 21 19 18 19 21 16 8 34 64 26 17 26 59 52 59 58 44 19 7 5 8 7 7 8 10 17 8 5 4 19 29 38 37 35 37 39 33 28
27 33 37 35 34 28 29 33 28 25 27 29 25 23 21 23 19 11 12 18 28 28 11 8 20 36 23 16 23 53 44 40 42 18 21 21 39 11 8 13 22 29 38 18 21 41 44 49 61 61 51 52 41 31
25 27 25 23 26 32 30 28 32 35 33 29 27 21 25 28 25 18 8 8 3 11 6 12 13 11 19 15 7 24 43 39 24 14 25 41 34 29 9 29 29 44 48 58 64 54 63 62 57 60 54 50 58 60
27 27 25 25 27 27 28 29 27 29 27 24 24 22 20 19 22 23 21 22 13 7 9 6 9 12 8 8 6 5 12 28 23 16 14 16 17 21 14 40 56 63 69 67 69 69 67 74 79 78 69 66 63 58
28 29 29 30 29 28 28 27 27 26 27 26 26 22 20 22 14 16 18 13 17 13 6 7 6 6 12 5 5 2 7 8 9 9 15 11 10 15 25 27 32 41 43 53 55 57 61 62 64 68 65 65 65 61
24 24 25 27 30 30 29 27 24 28 25 22 33 14 9 12 13 13 13 11 12 9 12 9 10 10 15 17 7 4 5 5 6 8 7 8 15 52 55 57 56 46 40 42 52 57 61 65 64 67 68 69 69 67
28 27 27 29 30 31 30 30 30 30 26 34 14 9 20 23 17 8 8 7 9 6 11 11 18 14 9 8 6 8 4 6 6 3 5 7 7 5 10 25 29 34 45 48 47 54 54 55 61 63 66 65 64 59
34 34 33 31 30 29 34 40 36 38 24 32 17 28 25 9 5 5 4 5 8 6 8 7 7 13 9 9 8 6 6 3 8 1 5 6 1 8 34 49 61 73 65 50 43 47 48 50 53 56 58 58 57 52
31 27 26 28 26 23 28 39 42 41 35 31 11 12 10 7 7 9 10 7 6 9 10 10 6 7 7 9 9 5 6 9 5 5 6 6 6 29 49 77 81 76 57 42 34 30 34 39 44 40 36 29 28 32
19 20 31 35 34 30 32 32 44 50 33 8 10 10 8 8 10 10 9 4 5 8 9 13 9 7 6 6 3 7 5 5 6 6 7 5 22 47 71 89 75 63 48 31 16 21 23 22 18 9 5 6 13 20
19 19 24 28 36 38 35 39 50 62 9 9 9 9 13 14 12 10 13 13 18 20 14 9 9 7 6 5 5 6 6 7 7 7 5 26 50 67 67 63 54 43 35 12 9 20 23 19 14 14 12 9 8 5
18 20 27 28 36 40 37 53 62 40 11 8 7 6 9 6 12 12 16 22 12 9 8 6 5 4 5 3 5 9 6 8 5 7 35 51 76 82 69 52 38 28 21 16 12 13 17 14 10 11 11 14 15 18
22 17 28 31 31 36 55 52 22 10 11 7 9 16 11 7 10 6 8 5 4 4 3 1 4 4 6 5 6 8 7 7 22 41 63 82 70 68 44 35 31 25 27 28 28 26 22 14 12 16 17 12 12 16
23 22 31 40 42 64 51 16 10 11 10 12 9 10 18 18 11 11 9 8 3 4 4 4 5 7 7 7 6 1 14 32 49 68 73 67 51 34 26 21 27 35 35 34 39 41 42 36 41 44 41 42 57 64
23 35 44 46 62 42 11 13 9 6 14 6 13 18 12 13 25 26 23 21 22 16 9 7 8 8 8 11 17 36 43 43 59 71 63 28 25 22 17 19 26 28 34 44 39 38 44 44 39 39 41 46 49 43
52 60 64 57 59 10 8 9 15 7 8 8 12 12 12 12 15 17 16 18 15 8 12 8 10 12 16 31 36 58 69 71 49 44 26 12 22 14 12 16 23 25 26 25 30 20 27 29 27 25 27 28 26 22
34 28 30 39 18 7 6 9 8 6 3 6 7 9 7 11 11 13 13 18 14 11 13 28 38 43 50 61 59 66 49 23 15 14 16 21 17 14 19 18 22 26 27 27 31 35 35 35 35 35 37 37 36 35
26 26 23 16 3 0 3 6 5 6 5 6 7 11 8 6 8 11 9 16 12 22 27 34 43 48 52 59 39 14 17 21 8 4 7 12 11 18 21 18 22 23 26 28 26 29 31 31 34 38 36 37 36 33
19 13 5 6 4 3 3 11 9 8 7 6 6 6 5 8 9 10 9 12 14 26 30 38 38 44 39 11 4 7 17 14 9 14 17 20 24 24 25 26 24 25 26 24 23 23 22 24 26 26 27 26 26 24
11 6 5 6 11 4 6 10 12 8 9 5 5 5 6 10 9 9 4 8 17 27 17 13 15 18 24 12 13 14 15 15 12 12 14 14 16 21 23 24 25 25 24 23 20 19 20 21 20 17 15 12 10 9
6 8 9 10 11 7 8 7 8 7 6 9 9 5 6 12 4 4 4 7 5 11 13 10 23 12 2 7 10 13 20 23 17 17 12 12 14 16 13 11 10 9 12 10 11 13 13 10 6 2 1 4 6 6
7 13 9 8 10 10 9 6 11 13 8 10 12 10 18 6 3 4 6 13 20 24 22 18 18 18 18 14 11 12 10 12 13 15 13 10 5 6 12 13 12 12 7 5 6 6 8 7 7 8 8 7 6 6
5 5 12 13 9 7 8 15 16 8 7 4 3 4 5 7 8 6 14 24 28 27 22 24 21 19 19 17 16 15 15 11 10 12 10 8 9 7 6 5 4 6 7 9 7 2 3 5 6 6 3 6 7 6
7 6 6 6 11 11 7 6 6 8 5 7 5 9 5 5 3 4 19 18 15 21 20 24 28 29 29 28 23 21 23 22 19 15 15 16 16 14 11 9 7 4 4 3 5 5 6 7 8 8 8 5 3 3
7 11 9 7 2 4 10 8 8 8 6 9 10 7 8 11 17 23 24 27 28 30 29 28 25 23 25 25 25 21 17 19 16 20 23 21 17 19 17 16 15 12 7 5 7 7 8 7 3 5 7 5 5 5
7 9 9 18 14 15 18 18 27 48 49 42 35 35 33 39 38 36 38 42 44 43 38 35 29 24 23 23 25 28 31 29 26 25 21 22 21 17 14 13 13 12 10 9 11 12 13 19 10 4 2 6 9 9
12 17 16 18 14 21 37 53 57 56 51 47 44 43 36 33 44 39 38 39 36 36 37 37 35 37 35 32 32 30 34 36 38 38 35 32 29 28 27 27 26 23 16 11 10 11 15 15 17 18 16 23 24 19
26 21 28 26 24 39 45 43 33 26 26 28 29 32 30 32 27 33 28 30 33 32 34 36 40 43 43 42 41 39 38 38 37 36 35 34 33 32 31 31 29 27 25 21 18 15 14 13 14 15 12 11 12 14
23 23 19 12 10 9 12 11 10 12 22 19 13 17 18 14 13 15 25 25 23 20 25 31 34 35 35 36 38 39 37 36 35 34 32 31 29 27 26 26 25 20 19 18 18 17 17 16 15 15 15 15 16 16
Wind_Direction_500mb
243 248 243 246 254 247 249 251 249 249 246 241 242 268 282 263 253 256 262 265 254 233 269 271 265 268 267 247 259 324 327 209 259 252 245 237 249 234 242 235 216 220 198 200 213 236 258 185 174 225 331 354 309 331
243 236 239 241 243 242 247 245 238 244 244 239 250 267 263 262 257 247 255 263 271 241 252 273 278 268 260 249 260 256 256 312 292 295 316 300 261 251 258 242 225 240 235 243 214 237 124 165 146 297 272 277 295 305
236 233 232 239 235 238 242 231 232 243 248 245 249 250 258 250 260 246 247 267 263 275 290 271 269 297 268 254 238 242 242 244 251 286 335 303 276 300 241 223 274 209 34 234 218 212 231 258 276 337 13 2 353 333
230 231 235 236 233 234 238 235 236 239 238 238 252 248 252 239 246 245 251 255 252 275 276 280 282 281 297 256 239 235 239 238 246 293 289 252 267 331 323 328 291 324 317 267 252 242 281 120 86 34 354 332 325 324
225 228 232 234 232 236 237 224 230 235 237 234 250 238 242 229 238 248 261 249 261 254 283 290 299 316 291 267 249 238 231 233 240 253 247 247 250 286 313 283 239 266 285 274 275 316 311 288 291 304 304 303 304 300
229 227 229 231 228 232 246 226 232 245 242 247 246 226 226 218 225 222 236 258 254 249 279 296 294 300 333 306 257 214 219 221 218 212 240 240 243 218 257 261 253 241 258 271 267 279 284 285 289 291 298 296 292 287
226 231 240 246 235 229 237 235 248 247 238 229 221 217 215 219 221 213 206 183 58 198 258 293 285 282 330 348 235 209 222 222 218 226 233 247 254 206 236 248 255 261 262 270 273 276 278 277 272 280 283 280 279 285
234 234 229 225 226 230 229 229 228 223 213 208 211 218 222 222 218 222 246 252 244 232 252 266 274 295 3 37 320 225 194 199 220 237 239 227 249 218 254 250 256 257 257 260 261 263 265 268 275 277 278 279 279 278
229 228 227 228 223 219 217 215 207 200 202 212 204 202 182 183 198 225 231 230 242 232 257 243 278 305 337 231 163 359 223 218 231 238 235 225 210 230 248 272 275 267 263 267 270 268 266 264 269 272 272 272 271 269
228 217 215 212 214 217 211 201 200 187 188 179 166 152 173 182 177 173 166 191 221 223 228 252 248 265 307 302 287 214 199 224 239 213 171 233 248 258 271 282 287 289 287 282 278 273 266 263 263 265 266 264 262 261
221 215 215 219 221 212 203 196 190 185 188 176 153 140 139 151 155 184 206 227 195 239 221 247 240 257 270 248 274 246 245 217 261 185 240 228 252 204 346 328 323 317 307 291 279 272 270 266 267 267 269 267 264 260
230 226 222 222 223 213 207 198 193 186 176 171 149 133 134 161 162 228 216 199 225 248 208 223 240 228 258 234 254 256 267 258 259 96 252 255 61 355 338 334 325 323 314 299 286 276 279 281 280 279 275 268 260 248
212 203 204 200 193 189 182 185 184 192 154 144 157 145 156 163 197 211 201 203 226 205 215 223 251 236 222 237 249 263 246 241 310 235 256 271 344 331 332 330 316 315 317 305 296 293 295 300 299 292 284 264 245 236
196 202 200 199 194 187 188 184 179 168 152 129 154 141 207 182 226 210 223 221 224 226 254 247 243 231 226 222 260 254 246 274 263 244 249 309 318 327 323 315 315 319 330 328 338 351 336 333 331 311 312 260 239 243
197 192 183 182 188 189 191 170 173 174 136 163 163 198 209 222 237 245 250 258 255 271 262 293 245 231 216 251 228 290 252 256 248 267 304 320 318 313 309 311 324 338 340 2 20 4 358 358 17 50 64 93 104 96
171 174 180 173 167 176 177 163 171 179 142 161 200 223 215 218 235 231 241 257 274 262 280 247 279 249 251 224 217 225 256 242 285 322 315 321 315 310 322 349 356 0 27 30 12 7 7 22 59 90 85 74 64 43
170 182 179 176 173 168 171 170 153 163 181 209 223 224 221 272 252 236 210 245 299 266 301 338 281 278 294 236 235 212 238 319 331 320 320 309 309 317 350 2 23 55 64 57 51 47 47 56 56 63 78 88 104 87
194 174 164 166 163 163 158 148 154 172 205 219 227 218 214 223 233 232 223 228 318 252 245 271 269 230 241 244 240 274 306 307 309 306 305 311 327 356 360 28 57 69 74 65 73 83 84 80 88 89 91 98 104 106
151 165 167 168 169 146 127 153 170 216 222 217 237 238 229 239 245 250 262 267 270 258 260 242 249 234 236 236 282 302 294 297 301 306 311 318 335 357 36 61 64 82 90 78 80 80 80 95 93 93 98 106 110 109
137 139 158 165 171 98 122 144 179 220 209 215 229 223 222 237 257 256 257 254 231 210 224 228 232 243 253 277 293 297 295 296 297 299 319 7 21 49 70 66 65 86 91 83 67 81 71 72 77 85 92 100 102 105
132 137 151 125 90 125 153 162 174 204 213 249 270 230 244 247 246 238 243 235 205 223 232 238 255 269 285 291 289 296 306 327 324 292 311 357 26 50 58 65 102 92 87 84 89 82 73 78 83 91 95 95 95 94
135 133 133 141 94 12 137 209 173 189 208 245 259 213 238 232 242 237 212 206 236 240 242 261 270 289 291 296 306 317 357 6 23 101 73 60 52 72 85 88 94 97 90 94 99 91 83 91 100 101 95 95 92 91
172 176 161 184 202 211 208 191 189 213 209 211 209 216 215 214 228 204 231 234 250 269 273 276 269 279 298 308 309 347 5 14 70 98 96 83 78 85 81 83 86 93 91 93 98 95 88 99 108 103 97 102 96 94
184 193 190 204 202 236 203 201 200 213 202 210 197 217 210 209 195 218 252 279 264 289 327 18 55 120 121 108 47 29 49 75 91 115 103 90 92 97 98 95 92 90 86 86 93 103 110 122 125 124 117 113 108 88
190 211 191 214 204 204 216 197 188 193 232 190 208 221 192 173 180 221 223 285 2 26 33 102 124 108 47 45 43 67 78 65 79 92 107 103 103 102 100 94 78 85 87 93 107 111 114 119 127 146 272 303 314 344
237 202 210 217 188 197 204 203 195 199 183 181 223 207 176 157 128 18 44 348 5 28 47 53 51 85 81 71 59 68 88 65 79 93 71 91 132 71 67 62 59 54 62 170 188 219 217 239 263 275 290 300 297 246
252 238 229 232 241 232 234 227 227 217 149 106 135 141 102 67 48 27 45 58 47 50 64 65 68 61 53 58 60 61 72 98 68 65 61 58 61 73 60 53 62 44 55 61 66 157 208 292 283 279 301 315 308 331
256 240 249 271 225 237 301 344 32 38 38 28 60 48 67 91 87 12 111 107 73 76 72 58 66 59 53 51 59 75 75 73 68 59 50 43 35 32 34 16 53 57 21 70 56 21 355 325 291 241 254 297 310 327
295 318 319 326 123 122 41 25 28 31 30 61 90 75 72 53 72 103 94 99 93 83 76 70 64 59 56 53 56 61 63 66 65 55 62 59 60 72 77 75 75 69 49 21 43 35 17 350 323 253 219 208 204 192
347 21 16 51 44 43 30 73 76 87 92 91 96 95 80 69 76 91 97 88 74 67 62 53 44 42 49 62 70 69 66 63 61 65 68 66 62 61 53 41 29 25 16 4 358 339 352 6 346 331 181 150 129 115
58 64 65 66 66 60 77 91 95 94 89 90 91 91 93 81 73 78 84 80 75 66 54 46 52 62 70 78 79 76 69 65 65 65 64 62 59 57 54 49 43 35 31 34 49 59 98 91 38 9 14 38 41 42
83 78 89 89 84 84 82 76 75 72 72 72 74 93 88 85 72 64 74 68 61 60 60 64 69 72 75 76 76 74 74 73 69 65 62 57 53 54 54 50 45 45 52 61 65 63 57 71 75 66 95 82 84 63
97 95 91 88 92 91 92 99 86 72 67 71 62 70 71 73 70 63 58 54 56 72 84 73 80 80 77 71 70 70 70 68 62 55 48 44 37 29 21 20 26 42 40 42 55 57 60 57 56 55 56 55 53 51
Wind_Speed_850mb
53 44 43 42 41 40 36 35 34 30 26 21 16 13 16 21 21 22 24 19 23 14 31 37 31 20 16 21 13 14 17 8 8 10 10 22 18 25 27 32 20 24 14 12 13 16 26 13 9 18 4 3 3 7
40 49 42 39 40 37 36 36 31 27 26 27 22 17 20 20 21 24 30 28 25 44 23 41 56 58 49 45 29 12 13 13 9 6 4 7 8 6 13 30 19 32 26 20 16 13 6 9 3 7 7 10 10 19
34 39 39 39 38 37 36 35 32 30 28 30 26 20 21 22 20 27 31 23 25 22 35 37 30 24 33 37 55 27 30 28 21 21 9 6 10 5 8 11 8 8 4 9 10 16 14 15 10 5 5 8 11 14
33 34 35 35 38 35 35 34 34 33 31 29 25 22 20 21 19 24 26 19 24 14 10 22 28 40 30 26 37 60 65 39 24 24 6 5 6 13 6 10 7 7 13 3 8 1 4 6 8 13 16 23 27 29
33 32 32 33 33 31 35 34 31 32 30 31 25 24 22 22 21 19 18 19 21 16 8 34 64 26 17 26 59 52 59 58 44 19 7 5 8 7 7 8 10 17 8 5 4 19 29 38 37 35 37 39 33 28
27 33 37 35 34 28 29 33 28 25 27 29 25 23 21 23 19 11 12 18 28 28 11 8 20 36 23 16 23 53 44 40 42 18 21 21 39 11 8 13 22 29 38 18 21 41 44 49 61 61 51 52 41 31
25 27 25 23 26 32 30 28 32 35 33 29 27 21 25 28 25 18 8 8 3 11 6 12 13 11 19 15 7 24 43 39 24 14 25 41 34 29 9 29 29 44 48 58 64 54 63 62 57 60 54 50 58 60
27 27 25 25 27 27 28 29 27 29 27 24 24 22 20 19 22 23 21 22 13 7 9 6 9 12 8 8 6 5 12 28 23 16 14 16 17 21 14 40 56 63 69 67 69 69 67 74 79 78 69 66 63 58
28 29 29 30 29 28 28 27 27 26 27 26 26 22 20 22 14 16 18 13 17 13 6 7 6 6 12 5 5 2 7 8 9 9 15 11 10 15 25 27 32 41 43 53 55 57 61 62 64 68 65 65 65 61
24 24 25 27 30 30 29 27 24 28 25 22 33 14 9 12 13 13 13 11 12 9 12 9 10 10 15 17 7 4 5 5 6 8 7 8 15 52 55 57 56 46 40 42 52 57 61 65 64 67 68 69 69 67
28 27 27 29 30 31 30 30 30 30 26 34 14 9 20 23 17 8 8 7 9 6 11 11 18 14 9 8 6 8 4 6 6 3 5 7 7 5 10 25 29 34 45 48 47 54 54 55 61 63 66 65 64 59
34 34 33 31 30 29 34 40 36 38 24 32 17 28 25 9 5 5 4 5 8 6 8 7 7 13 9 9 8 6 6 3 8 1 5 6 1 8 34 49 61 73 65 50 43 47 48 50 53 56 58 58 57 52
31 27 26 28 26 23 28 39 42 41 35 31 11 12 10 7 7 9 10 7 6 9 10 10 6 7 7 9 9 5 6 9 5 5 6 6 6 29 49 77 81 76 57 42 34 30 34 39 44 40 36 29 28 32
19 20 31 35 34 30 32 32 44 50 33 8 10 10 8 8 10 10 9 4 5 8 9 13 9 7 6 6 3 7 5 5 6 6 7 5 22 47 71 89 75 63 48 31 16 21 23 22 18 9 5 6 13 20
19 19 24 28 36 38 35 39 50 62 9 9 9 9 13 14 12 10 13 13 18 20 14 9 9 7 6 5 5 6 6 7 7 7 5 26 50 67 67 63 54 43 35 12 9 20 23 19 14 14 12 9 8 5
18 20 27 28 36 40 37 53 62 40 11 8 7 6 9 6 12 12 16 22 12 9 8 6 5 4 5 3 5 9 6 8 5 7 35 51 76 82 69 52 38 28 21 16 12 13 17 14 10 11 11 14 15 18
22 17 28 31 31 36 55 52 22 10 11 7 9 16 11 7 10 6 8 5 4 4 3 1 4 4 6 5 6 8 7 7 22 41 63 82 70 68 44 35 31 25 27 28 28 26 22 14 12 16 17 12 12 16
23 22 31 40 42 64 51 16 10 11 10 12 9 10 18 18 11 11 9 8 3 4 4 4 5 7 7 7 6 1 14 32 49 68 73 67 51 34 26 21 27 35 35 34 39 41 42 36 41 44 41 42 57 64
23 35 44 46 62 42 11 13 9 6 14 6 13 18 12 13 25 26 23 21 22 16 9 7 8 8 8 11 17 36 43 43 59 71 63 28 25 22 17 19 26 28 34 44 39 38 44 44 39 39 41 46 49 43
52 60 64 57 59 10 8 9 15 7 8 8 12 12 12 12 15 17 16 18 15 8 12 8 10 12 16 31 36 58 69 71 49 44 26 12 22 14 12 16 23 25 26 25 30 20 27 29 27 25 27 28 26 22
34 28 30 39 18 7 6 9 8 6 3 6 7 9 7 11 11 13 13 18 14 11 13 28 38 43 50 61 59 66 49 23 15 14 16 21 17 14 19 18 22 26 27 27 31 35 35 35 35 35 37 37 36 35
26 26 23 16 3 0 3 6 5 6 5 6 7 11 8 6 8 11 9 16 12 22 27 34 43 48 52 59 39 14 17 21 8 4 7 12 11 18 21 18 22 23 26 28 26 29 31 31 34 38 36 37 36 33
19 13 5 6 4 3 3 11 9 8 7 6 6 6 5 8 9 10 9 12 14 26 30 38 38 44 39 11 4 7 17 14 9 14 17 20 24 24 25 26 24 25 26 24 23 23 22 24 26 26 27 26 26 24
11 6 5 6 11 4 6 10 12 8 9 5 5 5 6 10 9 9 4 8 17 27 17 13 15 18 24 12 13 14 15 15 12 12 14 14 16 21 23 24 25 25 24 23 20 19 20 21 20 17 15 12 10 9
6 8 9 10 11 7 8 7 8 7 6 9 9 5 6 12 4 4 4 7 5 11 13 10 23 12 2 7 10 13 20 23 17 17 12 12 14 16 13 11 10 9 12 10 11 13 13 10 6 2 1 4 6 6
7 13 9 8 10 10 9 6 11 13 8 10 12 10 18 6 3 4 6 13 20 24 22 18 18 18 18 14 11 12 10 12 13 15 13 10 5 6 12 13 12 12 7 5 6 6 8 7 7 8 8 7 6 6
5 5 12 13 9 7 8 15 16 8 7 4 3 4 5 7 8 6 14 24 28 27 22 24 21 19 19 17 16 15 15 11 10 12 10 8 9 7 6 5 4 6 7 9 7 2 3 5 6 6 3 6 7 6
7 6 6 6 11 11 7 6 6 8 5 7 5 9 5 5 3 4 19 18 15 21 20 24 28 29 29 28 23 21 23 22 19 15 15 16 16 14 11 9 7 4 4 3 5 5 6 7 8 8 8 5 3 3
7 11 9 7 2 4 10 8 8 8 6 9 10 7 8 11 17 23 24 27 28 30 29 28 25 23 25 25 25 21 17 19 16 20 23 21 17 19 17 16 15 12 7 5 7 7 8 7 3 5 7 5 5 5
7 9 9 18 14 15 18 18 27 48 49 42 35 35 33 39 38 36 38 42 44 43 38 35 29 24 23 23 25 28 31 29 26 25 21 22 21 17 14 13 13 12 10 9 11 12 13 19 10 4 2 6 9 9
12 17 16 18 14 21 37 53 57 56 51 47 44 43 36 33 44 39 38 39 36 36 37 37 35 37 35 32 32 30 34 36 38 38 35 32 29 28 27 27 26 23 16 11 10 11 15 15 17 18 16 23 24 19
26 21 28 26 24 39 45 43 33 26 26 28 29 32 30 32 27 33 28 30 33 32 34 36 40 43 43 42 41 39 38 38 37 36 35 34 33 32 31 31 29 27 25 21 18 15 14 13 14 15 12 11 12 14
23 23 19 12 10 9 12 11 10 12 22 19 13 17 18 14 13 15 25 25 23 20 25 31 34 35 35 36 38 39 37 36 35 34 32 31 29 27 26 26 25 20 19 18 18 17 17 16 15 15 15 15 16 16
Wind_Direction_850mb
243 248 243 246 254 247 249 251 249 249 246 241 242 268 282 263 253 256 262 265 254 233 269 271 265 268 267 247 259 324 327 209 259 252 245 237 249 234 242 235 216 220 198 200 213 236 258 185 174 225 331 354 309 331
243 236 239 241 243 242 247 245 238 244 244 239 250 267 263 262 257 247 255 263 271 241 252 273 278 268 260 249 260 256 256 312 292 295 316 300 261 251 258 242 225 240 235 243 214 237 124 165 146 297 272 277 295 305
236 233 232 239 235 238 242 231 232 243 248 245 249 250 258 250 260 246 247 267 263 275 290 271 269 297 268 254 238 242 242 244 251 286 335 303 276 300 241 223 274 209 34 234 218 212 231 258 276 337 13 2 353 333
230 231 235 236 233 234 238 235 236 239 238 238 252 248 252 239 246 245 251 255 252 275 276 280 282 281 297 256 239 235 239 238 246 293 289 252 267 331 323 328 291 324 317 267 252 242 281 120 86 34 354 332 325 324
225 228 232 234 232 236 237 224 230 235 237 234 250 238 242 229 238 248 261 249 261 254 283 290 299 316 291 267 249 238 231 233 240 253 247 247 250 286 313 283 239 266 285 274 275 316 311 288 291 304 304 303 304 300
229 227 229 231 228 232 246 226 232 245 242 247 246 226 226 218 225 222 236 258 254 249 279 296 294 300 333 306 257 214 219 221 218 212 240 240 243 218 257 261 253 241 258 271 267 279 284 285 289 291 298 296 292 287
226 231 240 246 235 229 237 235 248 247 238 229 221 217 215 219 221 213 206 183 58 198 258 293 285 282 330 348 235 209 222 222 218 226 233 247 254 206 236 248 255 261 262 270 273 276 278 277 272 280 283 280 279 285
234 234 229 225 226 230 229 229 228 223 213 208 211 218 222 222 218 222 246 252 244 232 252 266 274 295 3 37 320 225 194 199 220 237 239 227 249 218 254 250 256 257 257 260 261 263 265 268 275 277 278 279 279 278
229 228 227 228 223 219 217 215 207 200 202 212 204 202 182 183 198 225 231 230 242 232 257 243 278 305 337 231 163 359 223 218 231 238 235 225 210 230 248 272 275 267 263 267 270 268 266 264 269 272 272 272 271 269
228 217 215 212 214 217 211 201 200 187 188 179 166 152 173 182 177 173 166 191 221 223 228 252 248 265 307 302 287 214 199 224 239 213 171 233 248 258 271 282 287 289 287 282 278 273 266 263 263 265 266 264 262 261
221 215 215 219 221 212 203 196 190 185 188 176 153 140 139 151 155 184 206 227 195 239 221 247 240 257 270 248 274 246 245 217 261 185 240 228 252 204 346 328 323 317 307 291 279 272 270 266 267 267 269 267 264 260
230 226 222 222 223 213 207 198 193 186 176 171 149 133 134 161 162 228 216 199 225 248 208 223 240 228 258 234 254 256 267 258 259 96 252 255 61 355 338 334 325 323 314 299 286 276 279 281 280 279 275 268 260 248
212 203 204 200 193 189 182 185 184 192 154 144 157 145 156 163 197 211 201 203 226 205 215 223 251 236 222 237 249 263 246 241 310 235 256 271 344 331 332 330 316 315 317 305 296 293 295 300 299 292 284 264 245 236
196 202 200 199 194 187 188 184 179 168 152 129 154 141 207 182 226 210 223 221 224 226 254 247 243 231 226 222 260 254 246 274 263 244 249 309 318 327 323 315 315 319 330 328 338 351 336 333 331 311 312 260 239 243
197 192 183 182 188 189 191 170 173 174 136 163 163 198 209 222 237 245 250 258 255 271 262 293 245 231 216 251 228 290 252 256 248 267 304 320 318 313 309 311 324 338 340 2 20 4 358 358 17 50 64 93 104 96
171 174 180 173 167 176 177 163 171 179 142 161 200 223 215 218 235 231 241 257 274 262 280 247 279 249 251 224 217 225 256 242 285 322 315 321 315 310 322 349 356 0 27 30 12 7 7 22 59 90 85 74 64 43
170 182 179 176 173 168 171 170 153 163 181 209 223 224 221 272 252 236 210 245 299 266 301 338 281 278 294 236 235 212 238 319 331 320 320 309 309 317 350 2 23 55 64 57 51 47 47 56 56 63 78 88 104 87
194 174 164 166 163 163 158 148 154 172 205 219 227 218 214 223 233 232 223 228 318 252 245 271 269 230 241 244 240 274 306 307 309 306 305 311 327 356 360 28 57 69 74 65 73 83 84 80 88 89 91 98 104 106
151 165 167 168 169 146 127 153 170 216 222 217 237 238 229 239 245 250 262 267 270 258 260 242 249 234 236 236 282 302 294 297 301 306 311 318 335 357 36 61 64 82 90 78 80 80 80 95 93 93 98 106 110 109
137 139 158 165 171 98 122 144 179 220 209 215 229 223 222 237 257 256 257 254 231 210 224 228 232 243 253 277 293 297 295 296 297 299 319 7 21 49 70 66 65 86 91 83 67 81 71 72 77 85 92 100 102 105
132 137 151 125 90 125 153 162 174 204 213 249 270 230 244 247 246 238 243 235 205 223 232 238 255 269 285 291 289 296 306 327 324 292 311 357 26 50 58 65 102 92 87 84 89 82 73 78 83 91 95 95 95 94
135 133 133 141 94 12 137 209 173 189 208 245 259 213 238 232 242 237 212 206 236 240 242 261 270 289 291 296 306 317 357 6 23 101 73 60 52 72 85 88 94 97 90 94 99 91 83 91 100 101 95 95 92 91
172 176 161 184 202 211 208 191 189 213 209 211 209 216 215 214 228 204 231 234 250 269 273 276 269 279 298 308 309 347 5 14 70 98 96 83 78 85 81 83 86 93 91 93 98 95 88 99 108 103 97 102 96 94
184 193 190 204 202 236 203 201 200 213 202 210 197 217 210 209 195 218 252 279 264 289 327 18 55 120 121 108 47 29 49 75 91 115 103 90 92 97 98 95 92 90 86 86 93 103 110 122 125 124 117 113 108 88
190 211 191 214 204 204 216 197 188 193 232 190 208 221 192 173 180 221 223 285 2 26 33 102 124 108 47 45 43 67 78 65 79 92 107 103 103 102 100 94 78 85 87 93 107 111 114 119 127 146 272 303 314 344
237 202 210 217 188 197 204 203 195 199 183 181 223 207 176 157 128 18 44 348 5 28 47 53 51 85 81 71 59 68 88 65 79 93 71 91 132 71 67 62 59 54 62 170 188 219 217 239 263 275 290 300 297 246
252 238 229 232 241 232 234 227 227 217 149 106 135 141 102 67 48 27 45 58 47 50 64 65 68 61 53 58 60 61 72 98 68 65 61 58 61 73 60 53 62 44 55 61 66 157 208 292 283 279 301 315 308 331
256 240 249 271 225 237 301 344 32 38 38 28 60 48 67 91 87 12 111 107 73 76 72 58 66 59 53 51 59 75 75 73 68 59 50 43 35 32 34 16 53 57 21 70 56 21 355 325 291 241 254 297 310 327
295 318 319 326 123 122 41 25 28 31 30 61 90 75 72 53 72 103 94 99 93 83 76 70 64 59 56 53 56 61 63 66 65 55 62 59 60 72 77 75 75 69 49 21 43 35 17 350 323 253 219 208 204 192
347 21 16 51 44 43 30 73 76 87 92 91 96 95 80 69 76 91 97 88 74 67 62 53 44 42 49 62 70 69 66 63 61 65 68 66 62 61 53 41 29 25 16 4 358 339 352 6 346 331 181 150 129 115
58 64 65 66 66 60 77 91 95 94 89 90 91 91 93 81 73 78 84 80 75 66 54 46 52 62 70 78 79 76 69 65 65 65 64 62 59 57 54 49 43 35 31 34 49 59 98 91 38 9 14 38 41 42
83 78 89 89 84 84 82 76 75 72 72 72 74 93 88 85 72 64 74 68 61 60 60 64 69 72 75 76 76 74 74 73 69 65 62 57 53 54 54 50 45 45 52 61 65 63 57 71 75 66 95 82 84 63
97 95 91 88 92 91 92 99 86 72 67 71 62 70 71 73 70 63 58 54 56 72 84 73 80 80 77 71 70 70 70 68 62 55 48 44 37 29 21 20 26 42 40 42 55 57 60 57 56 55 56 55 53 51